Regional Weather Roundup
Issued by NWS

Home | Current Version | Previous Version | Text Only | Print | Product List | Glossary On
Versions: 1 2 3 4 5 6 7 8 9 10 11 12 13 14 15 16 17 18 19 20 21 22 23 24 25 26 27 28 29 30 31 32 33 34 35 36 37 38 39 40 41 42 43 44 45 46 47 48 49 50
720
ASUS43 KMPX 250710
RWRMN
WEATHER ROUNDUP FOR MINNESOTA
NATIONAL WEATHER SERVICE TWIN CITIES/CHANHASSEN MN
200 AM CDT MON JUL 25 2016


NOTE: "FAIR" INDICATES FEW OR NO CLOUDS BELOW 12,000 FEET WITH NO
SIGNIFICANT WEATHER AND/OR OBSTRUCTIONS TO VISIBILITY. N/A MEANS
CURRENT SKY AND/OR WEATHER CONDITIONS ARE NOT AVAILABLE.

MNZ060>063-068>070-250800-
   Twin Cities Metro

CITY           SKY/WX    TMP DP  RH WIND       PRES   REMARKS
TWIN CITIES    CLEAR     71  60  68 W6        29.99S
ST PAUL        CLEAR     71  60  68 W9        29.98S
CRYSTAL        CLEAR     69  58  67 W6        29.97S
BLAINE         CLEAR     70  61  73 W5        29.98S
LAKEVILLE      CLEAR     66  63  88 W6        30.00S
EDEN PRAIRIE   CLEAR     68  61  78 W3        29.99S
LAKEVILLE      CLEAR     66  63  88 W6        30.00S
SOUTH ST PAUL  CLEAR     70  61  73 W5        29.98S
LAKE ELMO      FAIR      68  61  77 W6        29.99S
$$
MNZ001>005-007-008-013>017-022>024-027-028-250800-
   Northwest Minnesota

CITY           SKY/WX    TMP DP  RH WIND       PRES   REMARKS
BEMIDJI        CLEAR     63  59  88 W6        29.98R
HALLOCK        CLEAR     63  61  94 SW3       29.94S
ROSEAU         CLEAR     64  59  82 W5        29.94S
WARROAD        CLEAR     61  57  88 W6        29.94S
THIEF RVR FALL CLEAR     62  60  93 CALM      29.97S
CROOKSTON      PTCLDY    63  59  88 W3        29.97S
FOSSTON        CLEAR     57  55  94 CALM      29.99R
DETROIT LAKES  CLEAR     66  59  77 W6        30.01S
MOORHEAD       CLEAR     63  59  88 SW5       30.00S
PARK RAPIDS    CLEAR     62  57  83 W3        29.99S
MAHNOMEN       FAIR      62  58  86 W6        29.99S
$$
MNZ006-009>011-018-025>026-250800-
   North Central Minnesota

CITY           SKY/WX    TMP DP  RH WIND       PRES   REMARKS
BAUDETTE       CLEAR     60  58  92 W6        29.93S
FLAG ISLAND    CLEAR     64  61  88 W8        29.91S
INTL FALLS     CLEAR     61  58  90 W7        29.91S
WASKISH        CLEAR     66  63  88 W9        29.95R
BIG FORK         N/A     59  57  94 CALM      29.95S FOG
LONGVILLE      CLEAR     63  59  88 W3        29.97S
GRAND RAPIDS   CLEAR     67  61  81 W6        29.97S
CRANE LAKE     CLEAR     61  57  88 CALM      29.92R
ORR            CLEAR     64  55  72 NW6       29.90S
COOK           PTCLDY    61  57  88 CALM      29.94R
WALKER         FAIR      63  58  83 W6        29.97F
$$
MNZ012-019>021-037-250800-
   Northeast Minnesota

CITY           SKY/WX    TMP DP  RH WIND       PRES   REMARKS
DULUTH         CLEAR     66  61  84 NW9       29.93R
ELY            CLEAR     63  57  82 W8        29.91R
HIBBING        CLEAR     64  59  83 NW8       29.94R
EVELETH        CLEAR     64  58  82 W5        29.95R
DULUTH HARBOR  PTCLDY    66  63  88 S8        29.91R
TWO HARBORS    CLEAR     66  61  82 W3        29.89R
SILVER BAY     CLEAR     64  59  82 CALM      29.86S
GRAND MARAIS     N/A     64  57  78 SW6       29.81R
G MARAIS ARPRT CLEAR     63  55  77 W12G17    29.86S
$$
MNZ029>031-032-039>041-046>048-054>057-064-250800-
   West Central Minnesota

CITY           SKY/WX    TMP DP  RH WIND       PRES   REMARKS
FERGUS FALLS   CLEAR     63  57  82 CALM      30.03S
WHEATON        CLEAR     66  61  82 W5        30.04S
MORRIS         CLEAR     63  61  94 W6        30.02R
ALEXANDRIA     CLEAR     64  58  80 W6        30.03S
ELBOW LAKE     FAIR      62  59  90 NW3       30.03R
WADENA         CLEAR     61  57  88 SW5       30.00S
GLENWOOD       CLEAR     63  61  94 W7        30.03S
APPLETON       CLEAR     63  61  94 W5        30.02S
BENSON         PTCLDY    61  57  88 W3        30.02R
ORTONVILLE     CLEAR     70  59  68 CALM      30.03S
MADISON        CLEAR     63  61  94 SW3       30.04S
WILLMAR        FAIR      63  61  94 W6        30.04R
$$
MNZ033>034-036-042>043-049>051-058-059-250800-
   Central Minnesota

CITY           SKY/WX    TMP DP  RH WIND       PRES   REMARKS
ST CLOUD       CLEAR     65  60  84 NW7       29.98F
SAUK CENTRE    FAIR      62  59  90 CALM      30.01F
PAYNESVILLE    CLEAR     59  60 100 W3        30.02S
AITKIN         CLEAR     66  57  72 W5        29.96S
PINE RIVER     CLEAR     64  57  77 CALM      30.01S
BRAINERD       CLEAR     68  59  73 W6        29.98S
STAPLES        CLEAR     63  57  82 W5        30.00S
LONG PRAIRIE   FAIR      64  59  82 SW5       30.01F
LITTLE FALLS   CLEAR     61  55  82 CALM      29.99F
LITCHFIELD     CLEAR     66  64  94 W3        30.02S
BUFFALO        CLEAR     66  60  80 CALM      30.00F
MAPLE LAKE     CLEAR     67  61  81 W3        30.00F
HUTCHINSON     CLEAR     64  62  95 SW3       30.03S
$$
MNZ037-044-045-052-053-250800-
   East Central Minnesota

CITY           SKY/WX    TMP DP  RH WIND       PRES   REMARKS
PRINCETON      CLEAR     64  59  82 W5        29.98S
MORA           CLEAR     64  59  82 CALM      29.99R
CAMBRIDGE      CLEAR     70  57  64 W3        29.96S
RUSH CITY      PTCLDY    64  60  87 CALM      29.96S
MOOSE LAKE     CLEAR     63  59  88 W5        29.93S
HINCKLEY       FAIR      64  63  94 W3        29.96S
CLOQUET        CLEAR     66  59  77 W7        29.94R
MCGREGOR       CLEAR     68  61  77 W6        29.96S
$$
MNZ071>073-080-081-089-090-097-098-250800-
   Southwest Minnesota

CITY           SKY/WX    TMP DP  RH WIND       PRES   REMARKS
MONTEVIDEO     CLEAR     64  61  88 W5        30.05R
GRANITE FALLS  CLEAR     65  63  92 W7        30.05S
CANBY          CLEAR     65  60  82 W3        30.06S
MARSHALL       CLEAR     65  61  87 W9        30.06R
REDWOOD FALLS  CLEAR     67  61  81 W6        30.03R
OLIVIA         CLEAR     61  57  88 SW3       30.02S
PIPESTONE      CLEAR     63  61  94 W2        30.09F
WINDOM         CLEAR     64  61  88 CALM      30.07S
WORTHINGTON    CLEAR     63  61  93 W8        30.09S
JACKSON        CLEAR     64  59  82 W6        30.08S
TRACY          CLEAR     66  63  90 SW6       30.07S
SLAYTON        CLEAR     64  61  90 W3        30.09F
$$
MNZ065>067-074>077-082>085-091>093-250800-
   South Central Minnesota

CITY           SKY/WX    TMP DP  RH WIND       PRES   REMARKS
MANKATO        CLEAR     66  61  82 W7        30.03R
NEW ULM        CLEAR     63  61  94 SW6       30.04R
ST JAMES       CLEAR     61  57  88 W3        30.06R
FAIRMONT       CLEAR     66  61  82 W6        30.05R
GLENCOE        CLEAR     67  64  89 W3        30.01S
FARIBAULT      CLEAR     64  63  94 SW3       30.02S
OWATONNA       CLEAR     64  63  94 CALM      30.03R
WASECA         CLEAR     63  61  94 CALM      30.05R FOG
ALBERT LEA     CLEAR     66  64  94 W5        30.04R
$$
MNZ078>079-086>088-094>096-250800-
   Southeast Minnesota

CITY           SKY/WX    TMP DP  RH WIND       PRES   REMARKS
ROCHESTER      CLEAR     64  63  96 W6        30.03R
RED WING       CLEAR     64  63  94 CALM      29.97S
STANTON        CLEAR     66  63  88 SW3       29.99S
DODGE CENTER   CLEAR     64  61  88 W7        30.03R
WINONA         CLEAR     70  63  78 CALM      29.99R
AUSTIN         CLEAR     66  63  88 W3        30.03S
PRESTON        CLEAR     64  61  89 W7        30.04R
$$
ABBREVIATIONS USED IN REMARKS
   TC - TEMPERATURES IN CELSIUS
  WCI - WIND CHILL INDEX
   HX - HEAT INDEX
  VSB - VISIBILITY
$$




USA.gov is the U.S. government's official web portal to all federal, state and local government web resources and services.